Kelso-Longview, WA
on Monday, November 26, 2012

Monday
Previous Day Next Day
Daily Summary
 ActualAverage (KSPB)Record (KSPB)
Temperature
Mean Temperature °F °F  
Max Temperature 48°F °F 61°F (2014)
Min Temperature 28°F °F 25°F (2007)
Degree Days
Heating Degree Days 27    
Month to date heating degree days  
Since 1 July heating degree days  
Cooling Degree Days 0    
Month to date cooling degree days  
Year to date cooling degree days  
Moisture
Dew Point 31°F   
Average Humidity 83    
Maximum Humidity 93    
Minimum Humidity 62    
Precipitation
Precipitation 0.00 in in 1.04 in (2006)
Month to date precipitation  
Year to date precipitation  
Wind
Wind Speed 1 mph   
Max Wind Speed 7 mph   
Max Gust Speed mph   
Visibility 10 miles   
Events     

Key: T is trace of precipitation, MM is missing value
Source: NWS Daily Summary
Time(PST)TemperatureDew PointHumidity Pressure Visibility Wind DirectionWind SpeedGust SpeedPrecipitationEvents Conditions
12:15 AM 33.8°F 30.2°F 87% 30.16 in 10.0 miles SE 3.5 mph - N/A   Clear
12:35 AM 33.8°F 30.2°F 87% 30.16 in 10.0 miles Calm Calm - N/A   Clear
12:55 AM 33.8°F 30.2°F 87% 30.16 in 10.0 miles Calm Calm - N/A   Clear
1:15 AM 33.8°F 30.2°F 87% 30.16 in 10.0 miles SE 3.5 mph - N/A   Clear
1:35 AM 33.8°F 30.2°F 87% 30.15 in 10.0 miles Calm Calm - N/A   Clear
1:55 AM 32.0°F 28.4°F 87% 30.15 in 10.0 miles Calm Calm - N/A   Clear
2:15 AM 33.8°F 30.2°F 87% 30.13 in 10.0 miles Calm Calm - N/A   Clear
2:35 AM 32.0°F 28.4°F 87% 30.13 in 10.0 miles Calm Calm - N/A   Clear
2:55 AM 32.0°F 30.2°F 93% 30.12 in 10.0 miles Calm Calm - N/A   Clear
3:15 AM 32.0°F 30.2°F 93% 30.12 in 10.0 miles Calm Calm - N/A   Partly Cloudy
3:35 AM 32.0°F 30.2°F 93% 30.12 in 10.0 miles Calm Calm - N/A   Scattered Clouds
3:55 AM 32.0°F 28.4°F 87% 30.12 in 10.0 miles Calm Calm - N/A   Partly Cloudy
4:15 AM 32.0°F 28.4°F 87% 30.12 in 10.0 miles Calm Calm - N/A   Clear
4:35 AM 30.2°F 28.4°F 93% 30.12 in 8.0 miles Calm Calm - N/A   Clear
4:55 AM 30.2°F 28.4°F 93% 30.12 in 9.0 miles Calm Calm - N/A   Clear
5:15 AM 30.2°F 28.4°F 93% 30.12 in 10.0 miles Calm Calm - N/A   Clear
5:35 AM 30.2°F 26.6°F 86% 30.11 in 6.0 miles Calm Calm - N/A   Clear
5:55 AM 28.4°F 26.6°F 93% 30.12 in 9.0 miles Calm Calm - N/A   Clear
6:15 AM 30.2°F 26.6°F 86% 30.12 in 9.0 miles Calm Calm - N/A   Clear
6:35 AM 30.2°F 26.6°F 86% 30.11 in 7.0 miles Calm Calm - N/A   Clear
6:55 AM 30.2°F 28.4°F 93% 30.11 in 5.0 miles Calm Calm - N/A   Clear
7:15 AM 30.2°F 28.4°F 93% 30.11 in 9.0 miles Calm Calm - N/A   Partly Cloudy
7:35 AM 30.2°F 26.6°F 86% 30.11 in 8.0 miles Calm Calm - N/A   Mostly Cloudy
7:55 AM 30.2°F 28.4°F 93% 30.11 in 9.0 miles Calm Calm - N/A   Mostly Cloudy
8:15 AM 32.0°F 28.4°F 87% 30.11 in 10.0 miles Calm Calm - N/A   Scattered Clouds
8:35 AM 32.0°F 30.2°F 93% 30.11 in 10.0 miles Calm Calm - N/A   Clear
8:55 AM 33.8°F 28.4°F 81% 30.11 in 8.0 miles Calm Calm - N/A   Clear
9:15 AM 33.8°F 30.2°F 87% 30.12 in 10.0 miles SE 3.5 mph - N/A   Clear
9:35 AM 35.6°F 32.0°F 87% 30.12 in 10.0 miles Calm Calm - N/A   Clear
9:55 AM 37.4°F 32.0°F 81% 30.11 in 10.0 miles Calm Calm - N/A   Clear
10:15 AM 37.4°F 32.0°F 81% 30.11 in 10.0 miles North 5.8 mph - N/A   Clear
10:35 AM 39.2°F 33.8°F 81% 30.10 in 10.0 miles NNW 5.8 mph - N/A   Clear
10:55 AM 39.2°F 33.8°F 81% 30.10 in 10.0 miles NW 4.6 mph - N/A   Clear
11:15 AM 39.2°F 33.8°F 81% 30.09 in 10.0 miles NNW 4.6 mph - N/A   Clear
11:35 AM 42.8°F 33.8°F 70% 30.08 in 10.0 miles NW 3.5 mph - N/A   Clear
11:55 AM 42.8°F 33.8°F 70% 30.07 in 10.0 miles NW 4.6 mph - N/A   Clear
12:15 PM 42.8°F 33.8°F 70% 30.06 in 10.0 miles NNW 5.8 mph - N/A   Clear
12:35 PM 44.6°F 35.6°F 71% 30.06 in 10.0 miles NNW 6.9 mph - N/A   Clear
12:55 PM 44.6°F 35.6°F 71% 30.06 in 10.0 miles NNW 4.6 mph - N/A   Clear
1:15 PM 44.6°F 35.6°F 71% 30.05 in 10.0 miles NW 3.5 mph - N/A   Clear
1:35 PM 46.4°F 33.8°F 62% 30.04 in 10.0 miles NW 4.6 mph - N/A   Clear
1:55 PM 46.4°F 35.6°F 66% 30.04 in 10.0 miles NW 3.5 mph - N/A   Clear
2:15 PM 48.2°F 35.6°F 62% 30.04 in 10.0 miles North - - N/A   Clear
2:35 PM 48.2°F 35.6°F 62% 30.03 in 10.0 miles NNW 4.6 mph - N/A   Clear
2:55 PM 48.2°F 35.6°F 62% 30.03 in 10.0 miles NNW 5.8 mph - N/A   Clear
3:15 PM 48.2°F 35.6°F 62% 30.03 in 10.0 miles NNW 5.8 mph - N/A   Clear
3:35 PM 46.4°F 35.6°F 66% 30.03 in 10.0 miles North 6.9 mph - N/A   Clear
3:55 PM 46.4°F 35.6°F 66% 30.02 in 10.0 miles NNW 4.6 mph - N/A   Clear
4:15 PM 44.6°F 35.6°F 71% 30.03 in 10.0 miles NNW 3.5 mph - N/A   Clear
4:35 PM 42.8°F 35.6°F 76% 30.02 in 10.0 miles Calm Calm - N/A   Clear
4:55 PM 41.0°F 35.6°F 81% 30.03 in 10.0 miles Calm Calm - N/A   Clear
5:15 PM 39.2°F 35.6°F 87% 30.03 in 10.0 miles Calm Calm - N/A   Clear
5:35 PM 39.2°F 35.6°F 87% 30.03 in 10.0 miles Calm Calm - N/A   Clear
5:55 PM 37.4°F 33.8°F 87% 30.03 in 10.0 miles Calm Calm - N/A   Clear
6:15 PM 37.4°F 33.8°F 87% 30.03 in 10.0 miles Calm Calm - N/A   Clear
6:35 PM 37.4°F 33.8°F 87% 30.04 in 10.0 miles Calm Calm - N/A   Clear
6:55 PM 35.6°F 33.8°F 93% 30.05 in 10.0 miles Calm Calm - N/A   Clear
7:15 PM 35.6°F 32.0°F 87% 30.05 in 10.0 miles Calm Calm - N/A   Clear
7:35 PM 35.6°F 32.0°F 87% 30.05 in 10.0 miles Calm Calm - N/A   Clear
7:55 PM 33.8°F 30.2°F 87% 30.06 in 10.0 miles Calm Calm - N/A   Clear
8:15 PM 35.6°F 33.8°F 93% 30.06 in 10.0 miles Calm Calm - N/A   Clear
8:35 PM 33.8°F 30.2°F 87% 30.06 in 10.0 miles North 3.5 mph - N/A   Clear
8:55 PM 33.8°F 30.2°F 87% 30.06 in 8.0 miles Calm Calm - N/A   Clear
9:15 PM 33.8°F 30.2°F 87% 30.08 in 10.0 miles Calm Calm - N/A   Clear
9:35 PM 33.8°F 30.2°F 87% 30.08 in 10.0 miles Calm Calm - N/A   Clear
9:55 PM 33.8°F 30.2°F 87% 30.09 in 10.0 miles Calm Calm - N/A   Clear
10:15 PM 33.8°F 30.2°F 87% 30.08 in 10.0 miles Calm Calm - N/A   Clear
10:35 PM 32.0°F 28.4°F 87% 30.08 in 10.0 miles Calm Calm - N/A   Clear
10:55 PM 32.0°F 30.2°F 93% 30.09 in 7.0 miles Calm Calm - N/A   Clear
11:15 PM 32.0°F 28.4°F 87% 30.09 in 10.0 miles Calm Calm - N/A   Clear
11:35 PM 32.0°F 28.4°F 87% 30.09 in 5.0 miles Calm Calm - N/A   Clear
11:55 PM 30.2°F 28.4°F 93% 30.10 in 8.0 miles Calm Calm - N/A   Clear
Moon Phase
Nov. 26 Nov. 28 Dec. 06 Dec. 13 Dec. 20
Sunrise:07:28 AM (PST) Moon Rise:03:28 PM (PST)11/26
Sunset:04:29 PM (PST) Moon Set:05:40 AM (PST)11/26

Copyright © 2014 The Weather Underground, Inc.